OH7GGX-14 Weather Reports


Display with metric or nautical units.
time (UTC)temp
F
wind
direction
speed
MPH
gust
MPH
rain 1hr
in
rain 24hr
in
rain mn
in
humidity
%
barometer
mb
20260505102133 46 180 4.0 16.0 0.06 0.23 0.06 92 1000.0
20260505101133 48 213 9.0 12.0 0.02 0.19 0.02 83 999.7
20260505100133 51 264 4.0 12.0 0.00 0.17 0.00 76 999.1
20260505095133 51 213 5.0 13.0 0.00 0.17 0.00 78 998.1
20260505094133 52 217 6.0 13.0 0.00 0.17 0.00 80 998.0
20260505093133 52 208 6.0 10.0 0.00 0.17 0.00 75 997.9
20260505092133 53 187 8.0 10.0 0.00 0.17 0.00 74 997.9
20260505091133 53 216 1.0 9.0 0.00 0.17 0.00 79 998.3
20260505090133 53 180 4.0 8.0 0.00 0.17 0.00 80 998.2
20260505085133 52 182 7.0 10.0 0.00 0.17 0.00 82 998.4
20260505084133 52 181 8.0 10.0 0.00 0.17 0.00 84 998.7
20260505083133 51 184 2.0 6.0 0.00 0.17 0.00 86 999.0
20260505082133 51 205 2.0 9.0 0.00 0.17 0.00 86 999.2
20260505081133 50 219 4.0 7.0 0.00 0.17 0.00 88 999.4
20260505080133 50 230 4.0 10.0 0.00 0.17 0.00 87 999.4
20260505075133 49 189 2.0 10.0 0.00 0.17 0.00 89 999.6
20260505074133 49 168 4.0 8.0 0.00 0.17 0.00 91 999.6
20260505073133 49 213 4.0 7.0 0.00 0.17 0.00 95 999.8
20260505072133 48 233 5.0 8.0 0.00 0.17 0.00 96 1000.0
20260505071133 48 220 3.0 8.0 0.00 0.17 0.00 97 1000.2
20260505070133 48 156 1.0 11.0 0.00 0.17 0.00 95 1000.1
20260505065133 47 201 2.0 9.0 0.00 0.17 0.00 99 1000.1
20260505064133 47 184 4.0 9.0 0.00 0.17 0.00 99 1000.2
20260505063133 46 180 2.0 8.0 0.00 0.17 0.00 99 1000.5
20260505062133 45 257 2.0 5.0 0.00 0.17 0.00 99 1000.7
20260505061133 45 213 3.0 7.0 0.00 0.17 0.00 99 1000.7
20260505060133 46 213 2.0 9.0 0.00 0.17 0.00 99 1000.7
20260505055133 45 167 5.0 9.0 0.00 0.17 0.00 99 1000.7
20260505054134 45 216 2.0 7.0 0.00 0.17 0.00 99 1000.7
20260505053134 44 209 2.0 8.0 0.00 0.17 0.00 99 1000.7
20260505052134 44 226 8.0 9.0 0.00 0.17 0.00 99 1000.7
20260505051134 44 219 4.0 5.0 0.00 0.17 0.00 99 1000.6
20260505050134 44 230 1.0 7.0 0.00 0.17 0.00 99 1000.6
20260505041134 41 223 0.0 4.0 0.00 0.17 0.00 99 1000.7
20260505040134 41 185 2.0 3.0 0.00 0.17 0.00 99 1000.6
20260505035134 40 213 1.0 5.0 0.00 0.17 0.00 99 1000.6
20260505034134 40 225 1.0 5.0 0.00 0.17 0.00 99 1000.5
20260505033134 39 213 1.0 5.0 0.00 0.17 0.00 99 1000.5
20260505032134 39 177 2.0 3.0 0.00 0.17 0.00 99 1000.3
20260505031134 38 205 0.0 3.0 0.00 0.17 0.00 99 1000.3
20260505030134 38 240 0.0 2.0 0.00 0.17 0.00 99 1000.2
20260505025134 37 194 0.0 2.0 0.00 0.17 0.00 99 1000.2
20260505024134 37 223 0.0 1.0 0.00 0.17 0.00 99 1000.2
20260505023134 37 223 0.0 1.0 0.00 0.17 0.00 99 1000.3
20260505022134 37 182 1.0 2.0 0.00 0.17 0.00 99 1000.2
20260505021134 37 205 0.0 2.0 0.00 0.17 0.00 99 1000.1
20260505020134 37 223 0.0 1.0 0.00 0.17 0.00 99 1000.3
20260505015134 37 223 0.0 1.0 0.00 0.17 0.00 99 1000.2
20260505014134 37 178 0.0 0.0 0.00 0.17 0.00 99 1000.1
20260505013134 38 133 0.0 0.0 0.00 0.17 0.00 99 1000.1
20260505012134 38 178 0.0 2.0 0.00 0.17 0.00 99 1000.0
20260505011134 39 223 0.0 0.0 0.00 0.17 0.00 99 1000.0
20260505010134 40 187 0.0 1.0 0.00 0.17 0.00 99 999.8
20260505005134 40 223 1.0 1.0 0.00 0.17 0.00 99 999.9
20260505004134 41 206 1.0 4.0 0.00 0.17 0.00 99 999.7
20260505003134 41 178 0.0 2.0 0.00 0.17 0.00 99 999.7
20260505002134 42 226 0.0 3.0 0.00 0.17 0.00 99 999.7
20260505001134 42 216 2.0 4.0 0.00 0.17 0.00 99 999.7
20260505000134 42 250 0.0 4.0 0.00 0.17 0.00 99 999.6
20260504235134 43 192 2.0 3.0 0.00 0.17 0.00 99 999.5
20260504234134 43 199 0.0 3.0 0.00 0.17 0.00 99 999.6
20260504233134 44 255 2.0 4.0 0.00 0.17 0.00 99 999.6
20260504232134 44 240 4.0 5.0 0.00 0.17 0.00 99 999.4
20260504231134 44 217 2.0 4.0 0.00 0.17 0.00 99 999.4
20260504230134 45 196 3.0 4.0 0.00 0.17 0.00 99 999.4
20260504225134 45 213 2.0 4.0 0.00 0.17 0.00 99 999.4
20260504224134 45 191 1.0 5.0 0.00 0.17 0.00 99 999.5
20260504223134 45 236 3.0 5.0 0.00 0.17 0.00 99 999.4
20260504222134 45 175 1.0 4.0 0.00 0.17 0.00 99 999.4
20260504221134 45 226 3.0 3.0 0.00 0.17 0.00 99 999.3
20260504220134 46 205 1.0 3.0 0.00 0.17 0.00 99 999.2
20260504215134 46 216 0.0 3.0 0.00 0.17 0.00 99 999.3
20260504214134 46 210 0.0 3.0 0.00 0.17 0.00 99 999.3
20260504213134 46 172 1.0 5.0 0.00 0.17 0.17 99 999.2
20260504212134 46 247 1.0 7.0 0.00 0.17 0.17 99 999.3
20260504211134 46 248 0.0 2.0 0.00 0.17 0.17 99 999.3
20260504210134 46 195 0.0 3.0 0.00 0.17 0.17 99 999.2
20260504205134 46 239 6.0 6.0 0.00 0.17 0.17 99 999.3
20260504204134 46 171 0.0 5.0 0.00 0.17 0.17 99 999.3
20260504203134 46 195 1.0 5.0 0.00 0.17 0.17 99 999.2
20260504202134 46 223 1.0 8.0 0.00 0.17 0.17 99 999.3
20260504201134 46 181 1.0 3.0 0.00 0.17 0.17 99 999.1
20260504200134 46 230 1.0 4.0 0.00 0.17 0.17 99 999.0
20260504195135 46 241 1.0 5.0 0.01 0.17 0.17 99 999.0
20260504194135 46 223 0.0 1.0 0.01 0.17 0.17 99 999.0
20260504193135 46 237 0.0 2.0 0.01 0.17 0.17 99 999.0
20260504192135 46 178 0.0 3.0 0.01 0.17 0.17 99 999.0
20260504191135 46 174 0.0 2.0 0.01 0.17 0.17 99 999.1
20260504190135 46 199 0.0 3.0 0.01 0.17 0.17 99 999.1
20260504185135 46 209 1.0 1.0 0.00 0.16 0.16 99 999.2
20260504184135 46 348 0.0 0.0 0.00 0.16 0.16 99 999.2
20260504183135 46 348 0.0 0.0 0.00 0.16 0.16 99 999.3
20260504182135 46 350 0.0 0.0 0.00 0.16 0.16 99 999.4
20260504181135 46 345 0.0 0.0 0.00 0.16 0.16 99 999.6
20260504180135 46 43 0.0 0.0 0.00 0.16 0.16 99 999.6
20260504175135 46 334 0.0 0.0 0.00 0.16 0.16 99 999.7
20260504174135 46 133 0.0 1.0 0.00 0.16 0.16 99 999.7
20260504173135 46 156 0.0 0.0 0.00 0.16 0.16 99 1000.0
20260504172135 46 133 0.0 0.0 0.01 0.16 0.16 99 1000.1
20260504171135 46 223 0.0 0.0 0.01 0.16 0.16 99 1000.2
20260504170135 46 267 0.0 1.0 0.01 0.16 0.16 99 1000.3
20260504160135 46 71 0.0 0.0 0.03 0.15 0.15 99 1000.9
20260504151135 47 43 1.0 2.0 0.05 0.13 0.13 99 1001.9
20260504150135 47 43 1.0 2.0 0.04 0.12 0.12 99 1002.2
20260504141135 47 60 2.0 2.0 0.04 0.08 0.08 99 1003.0
20260504140135 47 43 1.0 3.0 0.06 0.08 0.08 99 1003.2
20260504130135 48 171 0.0 1.0 0.01 0.02 0.02 94 1003.8
20260504120135 49 165 0.0 0.0 0.01 0.01 0.01 87 1004.8
20260504110135 51 178 1.0 1.0 0.00 0.00 0.00 71 1005.6